Regional Weather Roundup
Issued by NWS

Home | Current Version | Previous Version | Graphics & Text | Print | Product List | Glossary On
Versions: 1 2 3 4 5 6 7 8 9 10 11 12 13 14 15 16 17 18 19 20 21 22 23 24 25 26 27 28 29 30 31 32 33 34 35 36 37 38 39 40 41 42 43 44 45 46 47 48 49 50
000
ASUS43 KFSD 300310
RWRSD

WEATHER ROUNDUP FOR SOUTH DAKOTA
NATIONAL WEATHER SERVICE SIOUX FALLS SD
1000 PM CDT SUN MAY 29 2016

NOTE: "FAIR" INDICATES FEW OR NO CLOUDS BELOW 12,000 FEET WITH NO
SIGNIFICANT WEATHER AND/OR OBSTRUCTIONS TO VISIBILITY.


SDZ001>005-009-010-012>017-300400-
NORTHWEST AND NORTH CENTRAL SOUTH DAKOTA

CITY           SKY/WX    TMP DP  RH WIND       PRES   REMARKS
BUFFALO          N/A     63  51  65 SE9       29.91R
FAITH            N/A     59  48  67 E12       29.98R
MOBRIDGE       CLOUDY    62  56  80 CALM      29.94S
$$

SDZ012>016-024>037-041>051-057-063-072>074-300400-
SOUTHWEST AND SOUTH CENTRAL SOUTH DAKOTA

CITY           SKY/WX    TMP DP  RH WIND       PRES   REMARKS
RAPID CTY ARPT CLEAR     61  53  75 E10       29.98R
PIERRE         CLEAR     64  54  69 E8        29.96R
CUSTER         PTCLDY    60  43  53 S5        30.09R
ELLSWORTH AFB  CLEAR     66  53  64 E7        29.98R
PHILIP         CLEAR     62  57  83 E7        29.96R
PINE RIDGE     CLOUDY    65  51  60 E6        29.97R
WINNER         FAIR      67  56  67 SE10      29.98S
$$

SDZ004>011-016>023-039-040-300400-
NORTHEAST SOUTH DAKOTA

CITY           SKY/WX    TMP DP  RH WIND       PRES   REMARKS
ABERDEEN       CLOUDY    66  48  52 S8        29.96R
WATERTOWN      CLEAR     60  47  61 S5        30.00R
BROOKINGS      CLEAR     63  52  67 SW3       30.02R
SISSETON         N/A     64  49  57 CALM      29.95R
$$

SDZ017-020-022-023-036>040-048>070-300400-
SOUTHEAST SOUTH DAKOTA

CITY           SKY/WX    TMP DP  RH WIND       PRES   REMARKS
SIOUX FALLS    CLEAR     59  54  83 CALM      30.03R
HURON          CLEAR     68  51  54 S7        29.98R
CHAMBERLAIN    CLOUDY    69  60  73 SE7       29.99S
MITCHELL       CLEAR     68  58  70 SE5       30.01R
YANKTON        CLEAR     68  57  68 NE6       30.00R
$$

ABBREVIATIONS USED IN REMARKS
   TC - TEMPERATURE IN CELSIUS
  WCI - WIND CHILL INDEX
   HX - HEAT INDEX
  VSB - VISIBILITY




USA.gov is the U.S. government's official web portal to all federal, state and local government web resources and services.